This is the latest recevied weather packets stored in our database for station/object N5PRN. If no packets are shown the sender has not sent any weather packets the latest 10 day(s).
| Time | Temp. | Humidity | Pressure | Rain* | Wind** | Luminosity | Snow |
|---|---|---|---|---|---|---|---|
| 1777605947 | 16.11° C | 96% | 1013.8 hPa | 1.78 mm | - | 0 W/m² | - |
| 1777605643 | 16.11° C | 96% | 1013.9 hPa | 1.27 mm | - | 0 W/m² | - |
| 1777605342 | 16.11° C | 96% | 1013.8 hPa | 1.27 mm | - | 0 W/m² | - |
| 1777605039 | 16.11° C | 96% | 1014.1 hPa | 1.78 mm | - | 0 W/m² | - |
| 1777604735 | 16.11° C | 96% | 1014 hPa | 1.78 mm | - | 0 W/m² | - |
| 1777604432 | 16.11° C | 96% | 1014 hPa | 0 mm | - | 0 W/m² | - |
| 1777604132 | 16.11° C | 96% | 1014.3 hPa | 1.27 mm | - | 0 W/m² | - |
| 1777603829 | 16.11° C | 96% | 1014 hPa | 1.27 mm | - | 0 W/m² | - |
| 1777603525 | 16.11° C | 96% | 1013.9 hPa | 1.78 mm | - | 0 W/m² | - |
| 1777603220 | 16.11° C | 96% | 1013.8 hPa | 1.78 mm | - | 0 W/m² | - |
| 1777602917 | 16.11° C | 96% | 1013.8 hPa | 0 mm | - | 0 W/m² | - |
| 1777602612 | 16.11° C | 96% | 1013.5 hPa | 0 mm | - | 0 W/m² | - |
| 1777602308 | 16.11° C | 96% | 1013.4 hPa | 0 mm | - | 0 W/m² | - |
| 1777602003 | 16.11° C | 96% | 1012.9 hPa | 0 mm | - | 0 W/m² | - |
| 1777601698 | 16.11° C | 96% | 1012.7 hPa | 0 mm | - | 0 W/m² | - |
| 1777601394 | 16.11° C | 96% | 1012.4 hPa | 0 mm | - | 0 W/m² | - |
| 1777601090 | 16.11° C | 96% | 1012.3 hPa | 0 mm | - | 0 W/m² | - |
| 1777600788 | 16.11° C | 96% | 1012.3 hPa | 0 mm | - | 0 W/m² | - |
| 1777600484 | 16.11° C | 96% | 1012.6 hPa | 0 mm | - | 0 W/m² | - |
| 1777600179 | 16.11° C | 96% | 1012.6 hPa | 0 mm | - | 0 W/m² | - |
| 1777599875 | 16.11° C | 96% | 1012.3 hPa | 0 mm | - | 0 W/m² | - |
| 1777599571 | 16.11° C | 96% | 1012.1 hPa | 0 mm | - | 0 W/m² | - |
| 1777599268 | 16.11° C | 96% | 1012.1 hPa | 0 mm | - | 0 W/m² | - |
| 1777598964 | 16.11° C | 96% | 1011.9 hPa | 1.78 mm | - | 0 W/m² | - |
| 1777598662 | 16.11° C | 96% | 1011.8 hPa | 1.78 mm | - | 0 W/m² | - |
* Rain latest hour (hover to see other rain measurements)
** Current wind speed in m/s (hover to see current wind gust speed)